DW0326 Weather Reports


time (UTC)temp
F
wind
direction
speed
knots
gust
knots
rain 1hr
in
rain 24hr
in
rain mn
in
humidity
%
barometer
mb
20260506181626 85 173 0.9 6.1 0.00 0.00 0.00 84 1005.6
20260506180726 84 0 0.0 0.0 0.00 0.00 0.00 87 1005.9
20260506175825 84 186 0.0 4.3 0.00 0.00 0.00 85 1005.9
20260506174925 84 187 0.9 5.2 0.00 0.00 0.00 85 1006.0
20260506174027 83 187 0.0 8.7 0.00 0.00 0.00 87 1006.3
20260506173126 82 186 0.9 10.4 0.00 0.00 0.00 89 1006.3
20260506172225 82 178 0.0 8.7 0.00 0.00 0.00 89 1006.4
20260506170426 82 159 0.0 3.5 0.00 0.00 0.00 90 1006.5
20260506165526 81 189 0.0 4.3 0.00 0.00 0.00 90 1006.5
20260506162825 81 188 0.9 6.1 0.00 0.00 0.00 91 1006.4
20260506161925 80 189 0.9 6.1 0.00 0.00 0.00 92 1006.2
20260506161026 80 126 0.0 4.3 0.00 0.00 0.00 92 1006.3
20260506160125 80 181 0.9 6.1 0.00 0.00 0.00 91 1006.3
20260506155226 80 191 0.9 6.1 0.00 0.00 0.00 91 1006.0
20260506154325 80 200 0.9 4.3 0.00 0.00 0.00 91 1006.0
20260506153425 80 202 1.7 7.0 0.00 0.00 0.00 91 1005.9
20260506152526 80 213 0.9 6.1 0.00 0.00 0.00 91 1005.7
20260506150725 80 187 0.9 6.1 0.00 0.00 0.00 91 1005.5
20260506145825 80 179 0.9 7.0 0.00 0.00 0.00 91 1005.5
20260506144926 80 182 1.7 7.8 0.00 0.00 0.00 91 1005.2
20260506144025 80 183 0.9 6.1 0.00 0.00 0.00 92 1005.0
20260506143125 80 196 0.9 7.8 0.00 0.00 0.00 93 1005.0
20260506142225 79 185 0.0 5.2 0.00 0.00 0.00 93 1005.2
20260506141325 79 182 1.7 9.6 0.00 0.00 0.00 94 1005.2
20260506140425 78 169 1.7 8.7 0.00 0.00 0.00 94 1005.4
20260506135525 78 167 1.7 7.0 0.00 0.00 0.00 95 1005.4
20260506134625 78 167 0.9 7.8 0.00 0.00 0.00 95 1005.4
20260506133726 78 166 0.9 5.2 0.00 0.00 0.00 96 1005.5
20260506132825 77 185 0.9 9.6 0.00 0.00 0.00 96 1005.5
20260506131925 77 0 0.0 0.0 0.00 0.00 0.00 96 1005.5
20260506131025 77 0 0.0 0.0 0.00 0.00 0.00 97 1005.5
20260506130125 77 0 0.0 0.0 0.00 0.00 0.00 97 1005.5
20260506125226 77 0 0.0 0.0 0.00 0.00 0.00 97 1005.5
20260506124325 77 0 0.0 0.0 0.00 0.00 0.00 97 1005.5
20260506123425 76 0 0.0 0.0 0.00 0.00 0.00 97 1005.4
20260506122525 76 0 0.0 0.0 0.00 0.00 0.00 97 1005.1
20260506120725 76 0 0.0 0.0 0.00 0.00 0.00 97 1004.9
20260506115825 76 189 0.9 5.2 0.00 0.00 0.00 97 1004.9
20260506114025 76 168 0.0 6.1 0.00 0.00 0.00 97 1004.4
20260506112225 76 177 1.7 6.1 0.00 0.00 0.00 97 1004.3
20260506111325 76 172 1.7 9.6 0.00 0.00 0.00 97 1004.3
20260506110426 76 175 1.7 6.1 0.00 0.00 0.00 97 1004.1
20260506105526 76 175 2.6 8.7 0.00 0.00 0.00 97 1004.2
20260506104626 76 178 0.9 8.7 0.00 0.00 0.00 97 1004.2
20260506103725 76 182 1.7 8.7 0.00 0.00 0.00 97 1004.2
20260506102825 76 178 1.7 9.6 0.00 0.00 0.00 97 1004.2
20260506101926 76 178 2.6 10.4 0.00 0.00 0.00 97 1004.0
20260506101025 76 183 1.7 7.8 0.00 0.00 0.00 97 1004.1
20260506100125 76 185 2.6 8.7 0.00 0.00 0.00 96 1004.1
20260506094326 76 177 1.7 8.7 0.00 0.00 0.00 96 1003.9
20260506093426 76 168 0.9 5.2 0.00 0.00 0.00 96 1003.9
20260506092525 76 168 1.7 6.1 0.00 0.00 0.00 95 1004.0
20260506091625 76 157 0.9 5.2 0.00 0.00 0.00 95 1004.0
20260506090725 76 176 0.9 6.1 0.00 0.00 0.00 95 1004.2
20260506085825 77 177 2.6 9.6 0.00 0.00 0.00 95 1004.2
20260506084925 77 189 2.6 8.7 0.00 0.00 0.00 94 1004.3
20260506084026 77 186 3.5 10.4 0.00 0.00 0.00 94 1004.4
20260506083125 77 187 3.5 10.4 0.00 0.00 0.00 94 1004.4
20260506082225 77 182 2.6 7.8 0.00 0.00 0.00 94 1004.4
20260506081326 77 177 3.5 10.4 0.00 0.00 0.00 94 1004.4
20260506080425 77 186 3.5 9.6 0.00 0.00 0.00 94 1004.4
20260506072825 77 177 1.7 8.7 0.00 0.00 0.00 94 1004.7
20260506071925 77 187 1.7 8.7 0.00 0.00 0.00 93 1004.9
20260506070125 78 181 1.7 6.1 0.00 0.00 0.00 93 1005.0
20260506061626 78 176 2.6 10.4 0.00 0.00 0.00 93 1005.2
20260506060725 78 179 1.7 8.7 0.00 0.00 0.00 93 1005.0
20260506050425 78 186 0.9 10.4 0.00 0.00 0.00 93 1005.2
20260506044625 78 186 3.5 13.0 0.00 0.00 0.00 93 1005.1
20260506043725 77 190 2.6 9.6 0.00 0.00 0.00 93 1004.9
20260506042825 77 184 1.7 10.4 0.00 0.00 0.00 93 1004.9
20260506041925 78 178 1.7 6.1 0.00 0.00 0.00 93 1005.1
20260506041025 78 175 1.7 9.6 0.00 0.00 0.00 93 1005.0
20260506040125 78 177 2.6 7.8 0.00 0.00 0.00 93 1004.9
20260506035225 78 177 3.5 11.3 0.00 0.00 0.00 92 1004.8
20260506033425 78 186 2.6 13.0 0.00 0.00 0.00 92 1004.5
20260506032525 78 176 2.6 14.8 0.00 0.00 0.00 92 1004.6
20260506031625 78 181 3.5 11.3 0.00 0.00 0.00 91 1004.6
20260506030726 78 179 4.3 11.3 0.00 0.00 0.00 91 1004.4
20260506025825 78 179 3.5 10.4 0.00 0.00 0.00 91 1004.4
20260506024925 78 176 4.3 11.3 0.00 0.00 0.00 91 1004.3
20260506024025 78 191 3.5 13.9 0.00 0.00 0.00 91 1003.9
20260506023125 79 179 4.3 10.4 0.00 0.00 0.00 90 1003.9
20260506022225 79 181 2.6 14.8 0.00 0.00 0.00 90 1003.9
20260506021325 79 182 2.6 9.6 0.00 0.00 0.00 88 1003.9
20260506020425 79 186 3.5 11.3 0.00 0.00 0.00 88 1003.7
20260506015525 79 189 3.5 13.0 0.00 0.00 0.00 88 1003.4
20260506014625 79 181 4.3 12.2 0.00 0.00 0.00 88 1003.4
20260506013725 79 181 5.2 14.8 0.00 0.00 0.00 88 1003.2
20260506012825 80 184 4.3 13.0 0.00 0.00 0.00 87 1003.2
20260506011926 80 171 2.6 10.4 0.00 0.00 0.00 87 1003.0
20260506011025 80 177 3.5 11.3 0.00 0.00 0.00 86 1002.9
20260506010125 80 177 1.7 7.8 0.00 0.00 0.00 86 1002.9
20260506004326 80 184 4.3 13.0 0.00 0.00 0.00 84 1002.8
20260506003425 80 190 3.5 11.3 0.00 0.00 0.00 84 1002.8
20260506002525 81 185 4.3 13.0 0.00 0.00 0.00 83 1002.7
20260506001625 81 188 5.2 13.9 0.00 0.00 0.00 83 1002.7
20260505235825 81 188 3.5 13.9 0.00 0.00 0.00 83 1002.5
20260505234925 81 186 6.1 15.6 0.00 0.00 0.00 82 1002.6
20260505234026 81 188 5.2 13.9 0.00 0.00 0.00 82 1002.5
20260505233125 82 186 6.1 14.8 0.00 0.00 0.00 82 1002.5
20260505232225 82 188 4.3 13.9 0.00 0.00 0.00 82 1002.7
20260505231325 82 184 5.2 11.3 0.00 0.00 0.00 83 1002.7
20260505230425 82 197 3.5 12.2 0.00 0.00 0.00 83 1002.6
20260505224626 82 190 6.1 14.8 0.00 0.00 0.00 82 1002.7
20260505223725 82 185 5.2 13.0 0.00 0.00 0.00 82 1002.7
20260505222825 82 184 4.3 12.2 0.00 0.00 0.00 83 1002.7
20260505221925 82 198 4.3 15.6 0.00 0.00 0.00 82 1002.8
20260505221025 83 188 5.2 15.6 0.00 0.00 0.00 82 1002.9
20260505215225 83 184 5.2 13.0 0.00 0.00 0.00 82 1003.0
20260505213425 84 195 5.2 13.0 0.00 0.00 0.00 80 1003.2
20260505212525 84 196 6.1 13.9 0.00 0.00 0.00 80 1003.3
20260505211625 84 196 4.3 13.0 0.00 0.00 0.00 81 1003.3
20260505205825 84 203 5.2 13.0 0.00 0.00 0.00 81 1003.4
20260505204926 84 211 6.1 14.8 0.00 0.00 0.00 81 1003.5
20260505204025 83 209 5.2 13.9 0.00 0.00 0.00 81 1003.9
20260505203125 83 204 5.2 14.8 0.00 0.00 0.00 82 1003.9
20260505202225 83 186 3.5 13.9 0.00 0.00 0.00 82 1004.0
20260505201325 84 187 2.6 11.3 0.00 0.00 0.00 81 1004.0
20260505200425 84 216 5.2 13.0 0.00 0.00 0.00 81 1004.2
20260505195525 84 212 4.3 13.9 0.00 0.00 0.00 81 1004.4
20260505194625 83 207 5.2 14.8 0.00 0.00 0.00 81 1004.4
20260505193726 83 197 6.1 14.8 0.00 0.00 0.00 81 1004.4
20260505191925 82 200 2.6 13.0 0.00 0.00 0.00 84 1004.6
20260505191025 82 194 5.2 13.0 0.00 0.00 0.00 84 1004.8
20260505190125 82 193 3.5 13.9 0.00 0.00 0.00 84 1004.8
20260505185225 81 215 2.6 10.4 0.00 0.00 0.00 84 1004.9
20260505184325 81 209 1.7 9.6 0.00 0.00 0.00 84 1004.9
20260505183425 81 221 2.6 9.6 0.00 0.00 0.00 85 1004.9